Location: Unspecified
(35.6961°N, 0.0000°E)
Time: 13:08:53
(UTC+00:00)

UNISAT 6 - Pass Details

Date: 18 June 2019
Orbit: 607 x 689 km, 97.8° (Epoch: 22 July)

Event Time Altitude Azimuth Distance (km) Brightness Sun altitude
Rises 21:38:31 0° 358° (N) 2,878 ? -21.9°
Reaches altitude 10° 21:40:55 10° 347° (NNW) 1,975 ? -22.2°
Maximum altitude 21:44:33 27° 289° (WNW) 1,183 ? -22.6°
Drops below altitude 10° 21:48:12 10° 231° (SW) 1,993 ? -23.0°
Enters shadow 21:48:28 - 229° (SW) 2,087 ? -23.1°
